segment_id,date_local,uptime,ped_lft,ped_rgt,ped_total,bike_lft,bike_rgt,bike_total,car_lft,car_rgt,car_total,heavy_lft,heavy_rgt,heavy_total,v85,car_speed0,car_speed10,car_speed20,car_speed30,car_speed40,car_speed50,car_speed60,car_speed70
100024661,2016-08-01 00:00,1.0,,,,40,39,79,,,,,,,
100024661,2016-08-01 01:00,1.0,,,,22,24,46,,,,,,,
100024661,2016-08-01 02:00,1.0,,,,13,12,25,,,,,,,
100024661,2016-08-01 03:00,1.0,,,,7,8,15,,,,,,,
100024661,2016-08-01 04:00,1.0,,,,7,8,15,,,,,,,
100024661,2016-08-01 05:00,1.0,,,,20,42,62,,,,,,,
100024661,2016-08-01 06:00,1.0,,,,58,95,153,,,,,,,
100024661,2016-08-01 07:00,1.0,,,,147,256,403,,,,,,,
100024661,2016-08-01 08:00,1.0,,,,437,695,1132,,,,,,,
100024661,2016-08-01 09:00,1.0,,,,521,601,1122,,,,,,,
100024661,2016-08-01 10:00,1.0,,,,262,251,513,,,,,,,
100024661,2016-08-01 11:00,1.0,,,,200,192,392,,,,,,,
100024661,2016-08-01 12:00,1.0,,,,204,244,448,,,,,,,
100024661,2016-08-01 13:00,1.0,,,,234,231,465,,,,,,,
100024661,2016-08-01 14:00,1.0,,,,235,229,464,,,,,,,
100024661,2016-08-01 15:00,1.0,,,,313,257,570,,,,,,,
100024661,2016-08-01 16:00,1.0,,,,444,323,767,,,,,,,
100024661,2016-08-01 17:00,1.0,,,,567,461,1028,,,,,,,
100024661,2016-08-01 18:00,1.0,,,,736,639,1375,,,,,,,
100024661,2016-08-01 19:00,1.0,,,,518,542,1060,,,,,,,
100024661,2016-08-01 20:00,1.0,,,,325,367,692,,,,,,,
100024661,2016-08-01 21:00,1.0,,,,205,211,416,,,,,,,
100024661,2016-08-01 22:00,1.0,,,,163,168,331,,,,,,,
100024661,2016-08-01 23:00,1.0,,,,115,125,240,,,,,,,
100024661,2016-08-02 00:00,1.0,,,,63,94,157,,,,,,,
100024661,2016-08-02 01:00,1.0,,,,37,41,78,,,,,,,
100024661,2016-08-02 02:00,1.0,,,,22,19,41,,,,,,,
100024661,2016-08-02 03:00,1.0,,,,12,15,27,,,,,,,
100024661,2016-08-02 04:00,1.0,,,,11,7,18,,,,,,,
100024661,2016-08-02 05:00,1.0,,,,17,32,49,,,,,,,
100024661,2016-08-02 06:00,1.0,,,,56,90,146,,,,,,,
100024661,2016-08-02 07:00,1.0,,,,134,254,388,,,,,,,
100024661,2016-08-02 08:00,1.0,,,,402,610,1012,,,,,,,
100024661,2016-08-02 09:00,1.0,,,,453,574,1027,,,,,,,
100024661,2016-08-02 10:00,1.0,,,,187,211,398,,,,,,,
100024661,2016-08-02 11:00,1.0,,,,161,172,333,,,,,,,
100024661,2016-08-02 12:00,1.0,,,,212,195,407,,,,,,,
100024661,2016-08-02 13:00,1.0,,,,182,179,361,,,,,,,
100024661,2016-08-02 14:00,1.0,,,,131,131,262,,,,,,,
100024661,2016-08-02 15:00,1.0,,,,179,189,368,,,,,,,
100024661,2016-08-02 16:00,1.0,,,,349,252,601,,,,,,,
100024661,2016-08-02 17:00,1.0,,,,504,311,815,,,,,,,
100024661,2016-08-02 18:00,1.0,,,,661,547,1208,,,,,,,
100024661,2016-08-02 19:00,1.0,,,,424,393,817,,,,,,,
100024661,2016-08-02 20:00,1.0,,,,226,291,517,,,,,,,
100024661,2016-08-02 21:00,1.0,,,,139,171,310,,,,,,,
100024661,2016-08-02 22:00,1.0,,,,139,123,262,,,,,,,
100024661,2016-08-02 23:00,1.0,,,,108,112,220,,,,,,,
100024661,2016-08-03 00:00,1.0,,,,57,80,137,,,,,,,
100024661,2016-08-03 01:00,1.0,,,,28,36,64,,,,,,,
100024661,2016-08-03 02:00,1.0,,,,30,16,46,,,,,,,
100024661,2016-08-03 03:00,1.0,,,,18,10,28,,,,,,,
100024661,2016-08-03 04:00,1.0,,,,6,10,16,,,,,,,
100024661,2016-08-03 05:00,1.0,,,,15,35,50,,,,,,,
100024661,2016-08-03 06:00,1.0,,,,45,87,132,,,,,,,
100024661,2016-08-03 07:00,1.0,,,,118,240,358,,,,,,,
100024661,2016-08-03 08:00,1.0,,,,393,564,957,,,,,,,
100024661,2016-08-03 09:00,1.0,,,,440,563,1003,,,,,,,
100024661,2016-08-03 10:00,1.0,,,,238,241,479,,,,,,,
100024661,2016-08-03 11:00,1.0,,,,170,152,322,,,,,,,
100024661,2016-08-03 12:00,1.0,,,,210,188,398,,,,,,,
100024661,2016-08-03 13:00,1.0,,,,205,189,394,,,,,,,
100024661,2016-08-03 14:00,1.0,,,,207,226,433,,,,,,,
100024661,2016-08-03 15:00,1.0,,,,280,259,539,,,,,,,
100024661,2016-08-03 16:00,1.0,,,,398,283,681,,,,,,,
100024661,2016-08-03 17:00,1.0,,,,461,367,828,,,,,,,
100024661,2016-08-03 18:00,1.0,,,,604,569,1173,,,,,,,
100024661,2016-08-03 19:00,1.0,,,,414,439,853,,,,,,,
100024661,2016-08-03 20:00,1.0,,,,255,321,576,,,,,,,
100024661,2016-08-03 21:00,1.0,,,,188,221,409,,,,,,,
100024661,2016-08-03 22:00,1.0,,,,165,158,323,,,,,,,
100024661,2016-08-03 23:00,1.0,,,,124,108,232,,,,,,,
100024661,2016-08-04 00:00,1.0,,,,75,78,153,,,,,,,
100024661,2016-08-04 01:00,1.0,,,,52,48,100,,,,,,,
100024661,2016-08-04 02:00,1.0,,,,27,19,46,,,,,,,
100024661,2016-08-04 03:00,1.0,,,,13,12,25,,,,,,,
100024661,2016-08-04 04:00,1.0,,,,17,12,29,,,,,,,
100024661,2016-08-04 05:00,1.0,,,,27,33,60,,,,,,,
100024661,2016-08-04 06:00,1.0,,,,44,112,156,,,,,,,
100024661,2016-08-04 07:00,1.0,,,,152,252,404,,,,,,,
100024661,2016-08-04 08:00,1.0,,,,388,636,1024,,,,,,,
100024661,2016-08-04 09:00,1.0,,,,506,624,1130,,,,,,,
100024661,2016-08-04 10:00,1.0,,,,297,295,592,,,,,,,
100024661,2016-08-04 11:00,1.0,,,,188,192,380,,,,,,,
100024661,2016-08-04 12:00,1.0,,,,202,141,343,,,,,,,
100024661,2016-08-04 13:00,1.0,,,,183,188,371,,,,,,,
100024661,2016-08-04 14:00,1.0,,,,220,219,439,,,,,,,
100024661,2016-08-04 15:00,1.0,,,,293,231,524,,,,,,,
100024661,2016-08-04 16:00,1.0,,,,379,257,636,,,,,,,
100024661,2016-08-04 17:00,1.0,,,,467,355,822,,,,,,,
100024661,2016-08-04 18:00,1.0,,,,574,506,1080,,,,,,,
100024661,2016-08-04 19:00,1.0,,,,381,438,819,,,,,,,
100024661,2016-08-04 20:00,1.0,,,,224,251,475,,,,,,,
100024661,2016-08-04 21:00,1.0,,,,165,178,343,,,,,,,
100024661,2016-08-04 22:00,1.0,,,,158,140,298,,,,,,,
100024661,2016-08-04 23:00,1.0,,,,109,121,230,,,,,,,
100024661,2016-08-05 00:00,1.0,,,,89,67,156,,,,,,,
100024661,2016-08-05 01:00,1.0,,,,44,42,86,,,,,,,
100024661,2016-08-05 02:00,1.0,,,,29,22,51,,,,,,,
100024661,2016-08-05 03:00,1.0,,,,26,7,33,,,,,,,
100024661,2016-08-05 04:00,1.0,,,,14,6,20,,,,,,,
100024661,2016-08-05 05:00,1.0,,,,16,12,28,,,,,,,
100024661,2016-08-05 06:00,1.0,,,,15,31,46,,,,,,,
100024661,2016-08-05 07:00,1.0,,,,49,73,122,,,,,,,
100024661,2016-08-05 08:00,1.0,,,,171,301,472,,,,,,,
100024661,2016-08-05 09:00,1.0,,,,225,349,574,,,,,,,
100024661,2016-08-05 10:00,1.0,,,,142,171,313,,,,,,,
100024661,2016-08-05 11:00,1.0,,,,155,137,292,,,,,,,
100024661,2016-08-05 12:00,1.0,,,,175,152,327,,,,,,,
100024661,2016-08-05 13:00,1.0,,,,200,173,373,,,,,,,
100024661,2016-08-05 14:00,1.0,,,,238,195,433,,,,,,,
100024661,2016-08-05 15:00,1.0,,,,297,213,510,,,,,,,
100024661,2016-08-05 16:00,1.0,,,,288,221,509,,,,,,,
100024661,2016-08-05 17:00,1.0,,,,359,260,619,,,,,,,
100024661,2016-08-05 18:00,1.0,,,,362,355,717,,,,,,,
100024661,2016-08-05 19:00,1.0,,,,315,326,641,,,,,,,
100024661,2016-08-05 20:00,1.0,,,,238,215,453,,,,,,,
100024661,2016-08-05 21:00,1.0,,,,158,205,363,,,,,,,
100024661,2016-08-05 22:00,1.0,,,,107,137,244,,,,,,,
100024661,2016-08-05 23:00,1.0,,,,110,133,243,,,,,,,
100024661,2016-08-06 00:00,1.0,,,,100,134,234,,,,,,,
100024661,2016-08-06 01:00,1.0,,,,77,68,145,,,,,,,
100024661,2016-08-06 02:00,1.0,,,,68,62,130,,,,,,,
100024661,2016-08-06 03:00,1.0,,,,33,25,58,,,,,,,
100024661,2016-08-06 04:00,1.0,,,,25,14,39,,,,,,,
100024661,2016-08-06 05:00,1.0,,,,22,10,32,,,,,,,
100024661,2016-08-06 06:00,1.0,,,,11,28,39,,,,,,,
100024661,2016-08-06 07:00,1.0,,,,33,23,56,,,,,,,
100024661,2016-08-06 08:00,1.0,,,,52,34,86,,,,,,,
100024661,2016-08-06 09:00,1.0,,,,125,73,198,,,,,,,
100024661,2016-08-06 10:00,1.0,,,,164,87,251,,,,,,,
100024661,2016-08-06 11:00,1.0,,,,134,147,281,,,,,,,
100024661,2016-08-06 12:00,1.0,,,,186,137,323,,,,,,,
100024661,2016-08-06 13:00,1.0,,,,189,205,394,,,,,,,
100024661,2016-08-06 14:00,1.0,,,,217,238,455,,,,,,,
100024661,2016-08-06 15:00,1.0,,,,288,230,518,,,,,,,
100024661,2016-08-06 16:00,1.0,,,,175,191,366,,,,,,,
100024661,2016-08-06 17:00,1.0,,,,231,271,502,,,,,,,
100024661,2016-08-06 18:00,1.0,,,,294,271,565,,,,,,,
100024661,2016-08-06 19:00,1.0,,,,211,276,487,,,,,,,
100024661,2016-08-06 20:00,1.0,,,,162,203,365,,,,,,,
100024661,2016-08-06 21:00,1.0,,,,126,160,286,,,,,,,
100024661,2016-08-06 22:00,1.0,,,,135,114,249,,,,,,,
100024661,2016-08-06 23:00,1.0,,,,121,123,244,,,,,,,
100024661,2016-08-07 00:00,1.0,,,,118,111,229,,,,,,,
100024661,2016-08-07 01:00,1.0,,,,69,77,146,,,,,,,
100024661,2016-08-07 02:00,1.0,,,,56,56,112,,,,,,,
100024661,2016-08-07 03:00,1.0,,,,42,36,78,,,,,,,
100024661,2016-08-07 04:00,1.0,,,,25,38,63,,,,,,,
100024661,2016-08-07 05:00,1.0,,,,35,28,63,,,,,,,
100024661,2016-08-07 06:00,1.0,,,,23,23,46,,,,,,,
100024661,2016-08-07 07:00,1.0,,,,27,13,40,,,,,,,
100024661,2016-08-07 08:00,1.0,,,,49,26,75,,,,,,,
100024661,2016-08-07 09:00,1.0,,,,79,48,127,,,,,,,
100024661,2016-08-07 10:00,1.0,,,,93,83,176,,,,,,,
100024661,2016-08-07 11:00,1.0,,,,118,128,246,,,,,,,
100024661,2016-08-07 12:00,1.0,,,,186,130,316,,,,,,,
100024661,2016-08-07 13:00,1.0,,,,191,164,355,,,,,,,
100024661,2016-08-07 14:00,1.0,,,,253,228,481,,,,,,,
100024661,2016-08-07 15:00,1.0,,,,249,248,497,,,,,,,
100024661,2016-08-07 16:00,1.0,,,,207,248,455,,,,,,,
100024661,2016-08-07 17:00,1.0,,,,222,237,459,,,,,,,
100024661,2016-08-07 18:00,1.0,,,,257,243,500,,,,,,,
100024661,2016-08-07 19:00,1.0,,,,230,261,491,,,,,,,
100024661,2016-08-07 20:00,1.0,,,,173,200,373,,,,,,,
100024661,2016-08-07 21:00,1.0,,,,167,146,313,,,,,,,
100024661,2016-08-07 22:00,1.0,,,,128,164,292,,,,,,,
100024661,2016-08-07 23:00,1.0,,,,106,92,198,,,,,,,
100024661,2016-08-08 00:00,1.0,,,,48,46,94,,,,,,,
100024661,2016-08-08 01:00,1.0,,,,24,41,65,,,,,,,
100024661,2016-08-08 02:00,1.0,,,,11,20,31,,,,,,,
100024661,2016-08-08 03:00,1.0,,,,4,13,17,,,,,,,
100024661,2016-08-08 04:00,1.0,,,,9,16,25,,,,,,,
100024661,2016-08-08 05:00,1.0,,,,28,41,69,,,,,,,
100024661,2016-08-08 06:00,1.0,,,,61,99,160,,,,,,,
100024661,2016-08-08 07:00,1.0,,,,160,247,407,,,,,,,
100024661,2016-08-08 08:00,1.0,,,,373,645,1018,,,,,,,
100024661,2016-08-08 09:00,1.0,,,,490,628,1118,,,,,,,
100024661,2016-08-08 10:00,1.0,,,,245,233,478,,,,,,,
100024661,2016-08-08 11:00,1.0,,,,183,206,389,,,,,,,
100024661,2016-08-08 12:00,1.0,,,,205,207,412,,,,,,,
100024661,2016-08-08 13:00,1.0,,,,236,229,465,,,,,,,
100024661,2016-08-08 14:00,1.0,,,,250,232,482,,,,,,,
100024661,2016-08-08 15:00,1.0,,,,324,280,604,,,,,,,
100024661,2016-08-08 16:00,1.0,,,,452,350,802,,,,,,,
100024661,2016-08-08 17:00,1.0,,,,558,421,979,,,,,,,
100024661,2016-08-08 18:00,1.0,,,,785,648,1433,,,,,,,
100024661,2016-08-08 19:00,1.0,,,,501,451,952,,,,,,,
100024661,2016-08-08 20:00,1.0,,,,288,300,588,,,,,,,
100024661,2016-08-08 21:00,1.0,,,,190,177,367,,,,,,,
100024661,2016-08-08 22:00,1.0,,,,136,145,281,,,,,,,
100024661,2016-08-08 23:00,1.0,,,,108,90,198,,,,,,,
100024661,2016-08-09 00:00,1.0,,,,50,71,121,,,,,,,
100024661,2016-08-09 01:00,1.0,,,,27,29,56,,,,,,,
100024661,2016-08-09 02:00,1.0,,,,29,19,48,,,,,,,
100024661,2016-08-09 03:00,1.0,,,,6,9,15,,,,,,,
100024661,2016-08-09 04:00,1.0,,,,9,13,22,,,,,,,
100024661,2016-08-09 05:00,1.0,,,,26,37,63,,,,,,,
100024661,2016-08-09 06:00,1.0,,,,56,106,162,,,,,,,
100024661,2016-08-09 07:00,1.0,,,,167,247,414,,,,,,,
100024661,2016-08-09 08:00,1.0,,,,406,692,1098,,,,,,,
100024661,2016-08-09 09:00,1.0,,,,543,698,1241,,,,,,,
100024661,2016-08-09 10:00,1.0,,,,264,279,543,,,,,,,
100024661,2016-08-09 11:00,1.0,,,,198,199,397,,,,,,,
100024661,2016-08-09 12:00,1.0,,,,224,205,429,,,,,,,
100024661,2016-08-09 13:00,1.0,,,,259,236,495,,,,,,,
100024661,2016-08-09 14:00,1.0,,,,252,265,517,,,,,,,
100024661,2016-08-09 15:00,1.0,,,,324,295,619,,,,,,,
100024661,2016-08-09 16:00,1.0,,,,417,330,747,,,,,,,
100024661,2016-08-09 17:00,1.0,,,,555,434,989,,,,,,,
100024661,2016-08-09 18:00,1.0,,,,757,657,1414,,,,,,,
100024661,2016-08-09 19:00,1.0,,,,500,503,1003,,,,,,,
100024661,2016-08-09 20:00,1.0,,,,315,320,635,,,,,,,
100024661,2016-08-09 21:00,1.0,,,,174,204,378,,,,,,,
100024661,2016-08-09 22:00,1.0,,,,189,141,330,,,,,,,
100024661,2016-08-09 23:00,1.0,,,,137,115,252,,,,,,,
100024661,2016-08-10 00:00,1.0,,,,62,90,152,,,,,,,
100024661,2016-08-10 01:00,1.0,,,,43,37,80,,,,,,,
100024661,2016-08-10 02:00,1.0,,,,36,13,49,,,,,,,
100024661,2016-08-10 03:00,1.0,,,,7,6,13,,,,,,,
100024661,2016-08-10 04:00,1.0,,,,4,12,16,,,,,,,
100024661,2016-08-10 05:00,1.0,,,,22,31,53,,,,,,,
100024661,2016-08-10 06:00,1.0,,,,44,99,143,,,,,,,
100024661,2016-08-10 07:00,1.0,,,,156,249,405,,,,,,,
100024661,2016-08-10 08:00,1.0,,,,410,642,1052,,,,,,,
100024661,2016-08-10 09:00,1.0,,,,532,681,1213,,,,,,,
100024661,2016-08-10 10:00,1.0,,,,249,277,526,,,,,,,
100024661,2016-08-10 11:00,1.0,,,,210,227,437,,,,,,,
100024661,2016-08-10 12:00,1.0,,,,252,251,503,,,,,,,
100024661,2016-08-10 13:00,1.0,,,,242,237,479,,,,,,,
100024661,2016-08-10 14:00,1.0,,,,296,242,538,,,,,,,
100024661,2016-08-10 15:00,1.0,,,,341,300,641,,,,,,,
100024661,2016-08-10 16:00,1.0,,,,387,354,741,,,,,,,
100024661,2016-08-10 17:00,1.0,,,,562,417,979,,,,,,,
100024661,2016-08-10 18:00,1.0,,,,676,605,1281,,,,,,,
100024661,2016-08-10 19:00,1.0,,,,492,457,949,,,,,,,
100024661,2016-08-10 20:00,1.0,,,,243,332,575,,,,,,,
100024661,2016-08-10 21:00,1.0,,,,178,192,370,,,,,,,
100024661,2016-08-10 22:00,1.0,,,,129,153,282,,,,,,,
100024661,2016-08-10 23:00,1.0,,,,137,111,248,,,,,,,
100024661,2016-08-11 00:00,1.0,,,,86,87,173,,,,,,,
100024661,2016-08-11 01:00,1.0,,,,38,42,80,,,,,,,
100024661,2016-08-11 02:00,1.0,,,,23,28,51,,,,,,,
100024661,2016-08-11 03:00,1.0,,,,16,13,29,,,,,,,
100024661,2016-08-11 04:00,1.0,,,,14,11,25,,,,,,,
100024661,2016-08-11 05:00,1.0,,,,37,38,75,,,,,,,
100024661,2016-08-11 06:00,1.0,,,,33,92,125,,,,,,,
100024661,2016-08-11 07:00,1.0,,,,144,243,387,,,,,,,
100024661,2016-08-11 08:00,1.0,,,,395,615,1010,,,,,,,
100024661,2016-08-11 09:00,1.0,,,,508,634,1142,,,,,,,
100024661,2016-08-11 10:00,1.0,,,,249,250,499,,,,,,,
100024661,2016-08-11 11:00,1.0,,,,254,221,475,,,,,,,
100024661,2016-08-11 12:00,1.0,,,,244,258,502,,,,,,,
100024661,2016-08-11 13:00,1.0,,,,233,246,479,,,,,,,
100024661,2016-08-11 14:00,1.0,,,,263,222,485,,,,,,,
100024661,2016-08-11 15:00,1.0,,,,324,282,606,,,,,,,
100024661,2016-08-11 16:00,1.0,,,,412,360,772,,,,,,,
100024661,2016-08-11 17:00,1.0,,,,541,405,946,,,,,,,
100024661,2016-08-11 18:00,1.0,,,,681,614,1295,,,,,,,
100024661,2016-08-11 19:00,1.0,,,,436,446,882,,,,,,,
100024661,2016-08-11 20:00,1.0,,,,247,344,591,,,,,,,
100024661,2016-08-11 21:00,1.0,,,,161,154,315,,,,,,,
100024661,2016-08-11 22:00,1.0,,,,148,167,315,,,,,,,
100024661,2016-08-11 23:00,1.0,,,,118,118,236,,,,,,,
100024661,2016-08-12 00:00,1.0,,,,76,97,173,,,,,,,
100024661,2016-08-12 01:00,1.0,,,,46,50,96,,,,,,,
100024661,2016-08-12 02:00,1.0,,,,33,23,56,,,,,,,
100024661,2016-08-12 03:00,1.0,,,,21,11,32,,,,,,,
100024661,2016-08-12 04:00,1.0,,,,15,14,29,,,,,,,
100024661,2016-08-12 05:00,1.0,,,,19,32,51,,,,,,,
100024661,2016-08-12 06:00,1.0,,,,36,59,95,,,,,,,
100024661,2016-08-12 07:00,1.0,,,,120,183,303,,,,,,,
100024661,2016-08-12 08:00,1.0,,,,269,434,703,,,,,,,
100024661,2016-08-12 09:00,1.0,,,,374,483,857,,,,,,,
100024661,2016-08-12 10:00,1.0,,,,212,245,457,,,,,,,
100024661,2016-08-12 11:00,1.0,,,,181,188,369,,,,,,,
100024661,2016-08-12 12:00,1.0,,,,199,204,403,,,,,,,
100024661,2016-08-12 13:00,1.0,,,,229,239,468,,,,,,,
100024661,2016-08-12 14:00,1.0,,,,221,238,459,,,,,,,
100024661,2016-08-12 15:00,1.0,,,,343,244,587,,,,,,,
100024661,2016-08-12 16:00,1.0,,,,452,301,753,,,,,,,
100024661,2016-08-12 17:00,1.0,,,,393,317,710,,,,,,,
100024661,2016-08-12 18:00,1.0,,,,510,415,925,,,,,,,
100024661,2016-08-12 19:00,1.0,,,,315,352,667,,,,,,,
100024661,2016-08-12 20:00,1.0,,,,196,239,435,,,,,,,
100024661,2016-08-12 21:00,1.0,,,,103,132,235,,,,,,,
100024661,2016-08-12 22:00,1.0,,,,105,111,216,,,,,,,
100024661,2016-08-12 23:00,1.0,,,,99,76,175,,,,,,,
100024661,2016-08-13 00:00,1.0,,,,74,77,151,,,,,,,
100024661,2016-08-13 01:00,1.0,,,,77,71,148,,,,,,,
100024661,2016-08-13 02:00,1.0,,,,53,47,100,,,,,,,
100024661,2016-08-13 03:00,1.0,,,,27,24,51,,,,,,,
100024661,2016-08-13 04:00,1.0,,,,18,15,33,,,,,,,
100024661,2016-08-13 05:00,1.0,,,,15,17,32,,,,,,,
100024661,2016-08-13 06:00,1.0,,,,30,16,46,,,,,,,
100024661,2016-08-13 07:00,1.0,,,,37,21,58,,,,,,,
100024661,2016-08-13 08:00,1.0,,,,53,41,94,,,,,,,
100024661,2016-08-13 09:00,1.0,,,,107,79,186,,,,,,,
100024661,2016-08-13 10:00,1.0,,,,158,112,270,,,,,,,
100024661,2016-08-13 11:00,1.0,,,,150,172,322,,,,,,,
100024661,2016-08-13 12:00,1.0,,,,219,198,417,,,,,,,
100024661,2016-08-13 13:00,1.0,,,,224,238,462,,,,,,,
100024661,2016-08-13 14:00,1.0,,,,230,279,509,,,,,,,
100024661,2016-08-13 15:00,1.0,,,,263,286,549,,,,,,,
100024661,2016-08-13 16:00,1.0,,,,295,277,572,,,,,,,
100024661,2016-08-13 17:00,1.0,,,,286,293,579,,,,,,,
100024661,2016-08-13 18:00,1.0,,,,319,296,615,,,,,,,
100024661,2016-08-13 19:00,1.0,,,,256,343,599,,,,,,,
100024661,2016-08-13 20:00,1.0,,,,198,306,504,,,,,,,
100024661,2016-08-13 21:00,1.0,,,,141,179,320,,,,,,,
100024661,2016-08-13 22:00,1.0,,,,133,169,302,,,,,,,
100024661,2016-08-13 23:00,1.0,,,,152,108,260,,,,,,,
100024661,2016-08-14 00:00,1.0,,,,93,104,197,,,,,,,
100024661,2016-08-14 01:00,1.0,,,,120,105,225,,,,,,,
100024661,2016-08-14 02:00,1.0,,,,70,59,129,,,,,,,
100024661,2016-08-14 03:00,1.0,,,,54,36,90,,,,,,,
100024661,2016-08-14 04:00,1.0,,,,28,12,40,,,,,,,
100024661,2016-08-14 05:00,1.0,,,,33,11,44,,,,,,,
100024661,2016-08-14 06:00,1.0,,,,25,19,44,,,,,,,
100024661,2016-08-14 07:00,1.0,,,,32,10,42,,,,,,,
100024661,2016-08-14 08:00,1.0,,,,47,28,75,,,,,,,
100024661,2016-08-14 09:00,1.0,,,,61,59,120,,,,,,,
100024661,2016-08-14 10:00,1.0,,,,91,89,180,,,,,,,
100024661,2016-08-14 11:00,1.0,,,,118,111,229,,,,,,,
100024661,2016-08-14 12:00,1.0,,,,144,117,261,,,,,,,
100024661,2016-08-14 13:00,1.0,,,,171,159,330,,,,,,,
100024661,2016-08-14 14:00,1.0,,,,191,206,397,,,,,,,
100024661,2016-08-14 15:00,1.0,,,,191,184,375,,,,,,,
100024661,2016-08-14 16:00,1.0,,,,220,205,425,,,,,,,
100024661,2016-08-14 17:00,1.0,,,,183,219,402,,,,,,,
100024661,2016-08-14 18:00,1.0,,,,202,217,419,,,,,,,
100024661,2016-08-14 19:00,1.0,,,,198,166,364,,,,,,,
100024661,2016-08-14 20:00,1.0,,,,190,156,346,,,,,,,
100024661,2016-08-14 21:00,1.0,,,,119,120,239,,,,,,,
100024661,2016-08-14 22:00,1.0,,,,110,102,212,,,,,,,
100024661,2016-08-14 23:00,1.0,,,,82,71,153,,,,,,,
100024661,2016-08-15 00:00,1.0,,,,56,38,94,,,,,,,
100024661,2016-08-15 01:00,1.0,,,,33,37,70,,,,,,,
100024661,2016-08-15 02:00,1.0,,,,17,16,33,,,,,,,
100024661,2016-08-15 03:00,1.0,,,,10,9,19,,,,,,,
100024661,2016-08-15 04:00,1.0,,,,10,9,19,,,,,,,
100024661,2016-08-15 05:00,1.0,,,,16,39,55,,,,,,,
100024661,2016-08-15 06:00,1.0,,,,62,110,172,,,,,,,
100024661,2016-08-15 07:00,1.0,,,,121,237,358,,,,,,,
100024661,2016-08-15 08:00,1.0,,,,407,710,1117,,,,,,,
100024661,2016-08-15 09:00,1.0,,,,532,645,1177,,,,,,,
100024661,2016-08-15 10:00,1.0,,,,245,250,495,,,,,,,
100024661,2016-08-15 11:00,1.0,,,,209,219,428,,,,,,,
100024661,2016-08-15 12:00,1.0,,,,265,216,481,,,,,,,
100024661,2016-08-15 13:00,1.0,,,,241,231,472,,,,,,,
100024661,2016-08-15 14:00,1.0,,,,310,258,568,,,,,,,
100024661,2016-08-15 15:00,1.0,,,,405,295,700,,,,,,,
100024661,2016-08-15 16:00,1.0,,,,426,346,772,,,,,,,
100024661,2016-08-15 17:00,1.0,,,,557,439,996,,,,,,,
100024661,2016-08-15 18:00,1.0,,,,772,614,1386,,,,,,,
100024661,2016-08-15 19:00,1.0,,,,483,490,973,,,,,,,
100024661,2016-08-15 20:00,1.0,,,,263,320,583,,,,,,,
100024661,2016-08-15 21:00,1.0,,,,164,208,372,,,,,,,
100024661,2016-08-15 22:00,1.0,,,,158,118,276,,,,,,,
100024661,2016-08-15 23:00,1.0,,,,91,94,185,,,,,,,
100024661,2016-08-16 00:00,1.0,,,,46,75,121,,,,,,,
100024661,2016-08-16 01:00,1.0,,,,43,31,74,,,,,,,
100024661,2016-08-16 02:00,1.0,,,,11,17,28,,,,,,,
100024661,2016-08-16 03:00,1.0,,,,8,7,15,,,,,,,
100024661,2016-08-16 04:00,1.0,,,,18,10,28,,,,,,,
100024661,2016-08-16 05:00,1.0,,,,19,36,55,,,,,,,
100024661,2016-08-16 06:00,1.0,,,,56,105,161,,,,,,,
100024661,2016-08-16 07:00,1.0,,,,157,294,451,,,,,,,
100024661,2016-08-16 08:00,1.0,,,,462,756,1218,,,,,,,
100024661,2016-08-16 09:00,1.0,,,,533,694,1227,,,,,,,
100024661,2016-08-16 10:00,1.0,,,,267,288,555,,,,,,,
100024661,2016-08-16 11:00,1.0,,,,245,248,493,,,,,,,
100024661,2016-08-16 12:00,1.0,,,,239,194,433,,,,,,,
100024661,2016-08-16 13:00,1.0,,,,244,256,500,,,,,,,
100024661,2016-08-16 14:00,1.0,,,,312,301,613,,,,,,,
100024661,2016-08-16 15:00,1.0,,,,352,317,669,,,,,,,
100024661,2016-08-16 16:00,1.0,,,,481,389,870,,,,,,,
100024661,2016-08-16 17:00,1.0,,,,589,459,1048,,,,,,,
100024661,2016-08-16 18:00,1.0,,,,735,676,1411,,,,,,,
100024661,2016-08-16 19:00,1.0,,,,357,361,718,,,,,,,
100024661,2016-08-16 20:00,1.0,,,,259,265,524,,,,,,,
100024661,2016-08-16 21:00,1.0,,,,157,139,296,,,,,,,
100024661,2016-08-16 22:00,1.0,,,,146,135,281,,,,,,,
100024661,2016-08-16 23:00,1.0,,,,106,127,233,,,,,,,
100024661,2016-08-17 00:00,1.0,,,,58,55,113,,,,,,,
100024661,2016-08-17 01:00,1.0,,,,27,35,62,,,,,,,
100024661,2016-08-17 02:00,1.0,,,,27,20,47,,,,,,,
100024661,2016-08-17 03:00,1.0,,,,15,7,22,,,,,,,
100024661,2016-08-17 04:00,1.0,,,,6,6,12,,,,,,,
100024661,2016-08-17 05:00,1.0,,,,18,32,50,,,,,,,
100024661,2016-08-17 06:00,1.0,,,,66,99,165,,,,,,,
100024661,2016-08-17 07:00,1.0,,,,150,275,425,,,,,,,
100024661,2016-08-17 08:00,1.0,,,,447,711,1158,,,,,,,
100024661,2016-08-17 09:00,1.0,,,,510,704,1214,,,,,,,
100024661,2016-08-17 10:00,1.0,,,,260,272,532,,,,,,,
100024661,2016-08-17 11:00,1.0,,,,236,213,449,,,,,,,
100024661,2016-08-17 12:00,1.0,,,,221,221,442,,,,,,,
100024661,2016-08-17 13:00,1.0,,,,253,259,512,,,,,,,
100024661,2016-08-17 14:00,1.0,,,,279,274,553,,,,,,,
100024661,2016-08-17 15:00,1.0,,,,350,330,680,,,,,,,
100024661,2016-08-17 16:00,1.0,,,,444,346,790,,,,,,,
100024661,2016-08-17 17:00,1.0,,,,615,470,1085,,,,,,,
100024661,2016-08-17 18:00,1.0,,,,805,657,1462,,,,,,,
100024661,2016-08-17 19:00,1.0,,,,516,547,1063,,,,,,,
100024661,2016-08-17 20:00,1.0,,,,312,357,669,,,,,,,
100024661,2016-08-17 21:00,1.0,,,,222,212,434,,,,,,,
100024661,2016-08-17 22:00,1.0,,,,176,188,364,,,,,,,
100024661,2016-08-17 23:00,1.0,,,,117,160,277,,,,,,,
100024661,2016-08-18 00:00,1.0,,,,79,96,175,,,,,,,
100024661,2016-08-18 01:00,1.0,,,,53,53,106,,,,,,,
100024661,2016-08-18 02:00,1.0,,,,21,19,40,,,,,,,
100024661,2016-08-18 03:00,1.0,,,,15,11,26,,,,,,,
100024661,2016-08-18 04:00,1.0,,,,16,15,31,,,,,,,
100024661,2016-08-18 05:00,1.0,,,,21,41,62,,,,,,,
100024661,2016-08-18 06:00,1.0,,,,42,103,145,,,,,,,
100024661,2016-08-18 07:00,1.0,,,,158,227,385,,,,,,,
100024661,2016-08-18 08:00,1.0,,,,411,653,1064,,,,,,,
100024661,2016-08-18 09:00,1.0,,,,511,613,1124,,,,,,,
100024661,2016-08-18 10:00,1.0,,,,250,259,509,,,,,,,
100024661,2016-08-18 11:00,1.0,,,,215,203,418,,,,,,,
100024661,2016-08-18 12:00,1.0,,,,250,194,444,,,,,,,
100024661,2016-08-18 13:00,1.0,,,,261,210,471,,,,,,,
100024661,2016-08-18 14:00,1.0,,,,263,244,507,,,,,,,
100024661,2016-08-18 15:00,1.0,,,,349,284,633,,,,,,,
100024661,2016-08-18 16:00,1.0,,,,439,350,789,,,,,,,
100024661,2016-08-18 17:00,1.0,,,,538,417,955,,,,,,,
100024661,2016-08-18 18:00,1.0,,,,709,643,1352,,,,,,,
100024661,2016-08-18 19:00,1.0,,,,515,529,1044,,,,,,,
100024661,2016-08-18 20:00,1.0,,,,300,339,639,,,,,,,
100024661,2016-08-18 21:00,1.0,,,,181,215,396,,,,,,,
100024661,2016-08-18 22:00,1.0,,,,166,193,359,,,,,,,
100024661,2016-08-18 23:00,1.0,,,,135,134,269,,,,,,,
100024661,2016-08-19 00:00,1.0,,,,118,101,219,,,,,,,
100024661,2016-08-19 01:00,1.0,,,,71,48,119,,,,,,,
100024661,2016-08-19 02:00,1.0,,,,45,28,73,,,,,,,
100024661,2016-08-19 03:00,1.0,,,,24,16,40,,,,,,,
100024661,2016-08-19 04:00,1.0,,,,15,14,29,,,,,,,
100024661,2016-08-19 05:00,1.0,,,,21,31,52,,,,,,,
100024661,2016-08-19 06:00,1.0,,,,49,92,141,,,,,,,
100024661,2016-08-19 07:00,1.0,,,,149,227,376,,,,,,,
100024661,2016-08-19 08:00,1.0,,,,381,550,931,,,,,,,
100024661,2016-08-19 09:00,1.0,,,,489,573,1062,,,,,,,
100024661,2016-08-19 10:00,1.0,,,,260,266,526,,,,,,,
100024661,2016-08-19 11:00,1.0,,,,224,211,435,,,,,,,
100024661,2016-08-19 12:00,1.0,,,,234,254,488,,,,,,,
100024661,2016-08-19 13:00,1.0,,,,287,249,536,,,,,,,